TOPSWRTT 000
TTAA00 KICT 250812

Wichita AWIPS Roundup
National Weather Service Wichita KS
300 AM CDT FRI APR 25 2014

....Central Kansas....
  
CITY           SKY/WX    TMP DP  RH WIND       PRES   REMARKS
RUSSELL        CLEAR     47  33  58 SW10      29.87S                  
SALINA         CLEAR     43  36  76 S3        29.88S                  
GREAT BEND     CLEAR     41  32  70 SW6       29.89F WCI  37          
ELLSWORTH      CLEAR     50  34  53 CALM      29.88S                  
MCPHERSON      CLEAR     39  36  87 S7        29.90S WCI  34          
HAYS           CLEAR     45  32  61 SW6       29.89S                  

....South Central Kansas....
  
CITY           SKY/WX    TMP DP  RH WIND       PRES   REMARKS
HUTCHINSON     CLEAR     46  35  65 S3        29.91S                  
NEWTON         CLEAR     46  34  61 SW9       29.93S                  
KINGMAN        CLEAR     52  37  58 S7        29.91S                  
WICHITA (ICT)  CLEAR     45  36  70 SW9       29.91S WCI  40          
JABARA ARPT    CLEAR     52  37  56 SW12      29.91R                  
MCCONNELL AFB  CLEAR     49  40  70 S9        29.92S                  
HARPER           N/A     43  36  75 CALM      29.96S                  
WELLINGTON     CLEAR     46  36  66 CALM      29.93S                  
WINFIELD       CLEAR     45  35  68 CALM      29.93S                  
 
....Southeast Kansas....
  
CITY           SKY/WX    TMP DP  RH WIND       PRES   REMARKS
EUREKA         CLEAR     46  37  71 CALM      29.90S                  
CHANUTE        CLEAR     45  41  86 S5        29.91S                  
PARSONS        CLEAR     40  38  93 CALM      29.93R                  
COFFEYVILLE    CLEAR     45  42  89 S5        29.92S                  
INDEPENDENCE   CLEAR     45  41  87 CALM      29.92S                  
FORT SCOTT     CLEAR     46  43  87 SW6       29.89S                  
PITTSBURG        N/A     42  32  66 CALM      29.91R                  

....Western Kansas....
  
CITY           SKY/WX    TMP DP  RH WIND       PRES   REMARKS
GOODLAND       PTCLDY    50  17  27 S12       29.90F                  
HILL CITY      CLEAR     50  30  46 SW7       29.87F                  
LIBERAL        PTCLDY    43  25  49 S6        29.92F WCI  39          
GARDEN CITY    CLEAR     46  28  49 S8        29.90F                  
DODGE CITY     CLEAR     49  30  48 S13       29.92S                  
PRATT          CLEAR     39  32  75 S7        29.93S WCI  34          
MEDICINE LODGE   N/A     51  34  52 S5        29.92S                  

....Northeast Kansas....
  
CITY           SKY/WX    TMP DP  RH WIND       PRES   REMARKS
CONCORDIA      CLEAR     54  30  40 SW14      29.85R                  
TOPEKA         FOG       43  41  93 CALM      29.88S VSB 1/4          
MANHATTAN      CLEAR     40  40 100 CALM      29.87S                  
LAWRENCE       CLEAR     40  39  97 CALM      29.88S FOG              
OLATHE           N/A     49  41  74 W3        29.87F                  
EMPORIA        CLEAR     47  39  74 S10       29.89R                  

....Oklahoma....
  
CITY           SKY/WX    TMP DP  RH WIND       PRES   REMARKS
GAGE           CLEAR     53  33  46 S10       29.92F                  
PONCA CITY     CLEAR     50  37  61 CALM      29.93S                  
BARTLESVILLE   CLEAR     44  39  82 VRB3      29.93F                  
TULSA          CLEAR     50  43  77 S3        29.93S                  
OKLAHOMA CITY  CLEAR     50  39  66 S3        29.94F                  

Note: "fair" indicates few or no clouds below 12,000 feet with no
significant weather and/or obstructions to visibility.
  

USA.gov is the U.S. government's official web portal to all federal, state and local government web resources and services.